Content
SEND FEEDBACK

Daily
Averages
Monthly
Summary
Mexico

CANCUN, QUINTANA ROO


Home > North America > Mexico > Quintana Roo
Elevation: 9 meters     Latitude: 21 09N     Longitude: 086 49W

WEATHER
 
SELECT A DAY
Number of Records: 167,956;   Date Range: 1/1/95 - 12/26/14
 
SHARE

PRINT THIS DATA

[ ← Previous Day ]
WEATHER ALMANAC - 10 JANUARY, 2013
[ Next Day → ]
[ °F ]   °C
Weather ElementAverageHighLow
Temperature26.8 °C29 °C (12:48 pm)26 °C (1:44 am)
Dewpoint22.6 °C23 °C (1:44 am)21 °C (7:45 am)
Humidity77.6 %83 % (1:44 am)66 % (1:48 pm)
Barometer1018.3 hPa1019.6 hPa (9:46 pm)1016.9 hPa (12:48 pm)
Wind Speed19.2 km/h35.2 km/h (12:48 pm)
Wind Gust38.9 km/h (11:48 am)
Weather ElementAverage
Visibility11.1 km
Wind DirectionESE (111.7 °)

Weather ElementTotal
Precipitation---
Cooling Degree Days9.2 (Base 18.3)
Growing Degree Days17.5 (Base 10)
Averaged from 23 records on 10 January, 2013
WEATHER CONDITIONS BREAKOUT
WIND DIRECTION BREAKOUT
WEATHER BY HOUR - 10 JANUARY, 2013
[ °F ]   °C
Local TimeTemperatureDewpointHumidityBarometerVisibilityWind DirectionWind SpeedGust SpeedPrecipitationEventsConditions
1:44 AM26 °C23 °C83 %1018.3 hPa11.3 kmESE (110°)14.8 km/hClear
2:46 AM26 °C23 °C83 %1017.3 hPa11.3 kmESE (110°)13 km/hClear
3:45 AM26 °C23 °C83 %1018.3 hPa11.3 kmESE (120°)16.7 km/hClear
4:44 AM26 °C23 °C83 %1018.3 hPa11.3 kmESE (110°)16.7 km/hPartly Cloudy
5:43 AM26 °C22 °C78 %1018.3 hPa11.3 kmESE (110°)14.8 km/hScattered Clouds
6:42 AM26 °C23 °C83 %1018.6 hPa11.3 kmESE (110°)13 km/hScattered Clouds
7:45 AM27 °C21 °C70 %1019 hPa11.3 kmESE (120°)29.6 km/hScattered Clouds
8:46 AM28 °C23 °C74 %1019.3 hPa11.3 kmSE (130°)27.8 km/hScattered Clouds
9:45 AM28 °C23 °C74 %1019.3 hPa11.3 kmESE (120°)27.8 km/hMostly Cloudy
10:42 AM28 °C23 °C74 %1018.6 hPa11.3 kmESE (120°)25.9 km/hMostly Cloudy
11:48 AM28 °C23 °C74 %1017.6 hPa11.3 kmESE (110°)18.5 km/h38.9 km/hMostly Cloudy
12:48 PM29 °C23 °C70 %1016.9 hPa11.3 kmESE (120°)35.2 km/hMostly Cloudy
1:48 PM29 °C22 °C66 %1016.9 hPa11.3 kmESE (110°)25.9 km/hScattered Clouds
2:42 PM28 °C22 °C70 %1016.9 hPa9.7 kmESE (120°)24.1 km/hScattered Clouds
3:44 PM27 °C22 °C74 %1017.3 hPa9.7 kmESE (120°)22.2 km/hMostly Cloudy
4:43 PM27 °C23 °C79 %1017.9 hPa9.7 kmEast (100°)13 km/hMostly Cloudy
5:44 PM26 °C23 °C83 %1017.9 hPa11.3 kmESE (110°)13 km/hScattered Clouds
6:42 PM26 °C23 °C83 %1018.6 hPa11.3 kmEast (100°)9.3 km/hScattered Clouds
7:41 PM26 °C23 °C83 %1019.3 hPa11.3 kmEast (100°)11.1 km/hPartly Cloudy
8:45 PM26 °C23 °C83 %1019.3 hPa11.3 kmEast (100°)13 km/hScattered Clouds
9:46 PM26 °C22 °C78 %1019.6 hPa11.3 kmEast (100°)14.8 km/hScattered Clouds
10:45 PM26 °C22 °C78 %1019.3 hPa11.3 kmESE (110°)22.2 km/hPartly Cloudy
11:47 PM26 °C22 °C78 %1019.3 hPa11.3 kmESE (110°)16.7 km/hScattered Clouds
Hourly data recorded from MMUN, located 0 kilometers away from Cancun, Quintana Roo







STORIES FROM OUR PARTNERS